DW9837 Weather Reports


Display with metric or nautical units.
time (UTC)temp
F
wind
direction
speed
MPH
gust
MPH
rain 1hr
in
rain 24hr
in
rain mn
in
humidity
%
barometer
mb
20200403113212 43 355 5.0 6.0 0.00 0.05 0.01 89 998.6
20200403112543 -90 0.0 0.0 0.00 0.05 0.01 83 998.6
20200403112041 -90 0.0 0.0 0.00 0.05 0.01 83 998.6
20200403111608 -90 0.0 0.0 0.00 0.05 0.01 83 998.7
20200403111040 -90 0.0 0.0 0.00 0.05 0.01 83 998.5
20200403110547 -90 0.0 0.0 0.00 0.05 0.01 83 998.6
20200403110045 -90 0.0 0.0 0.00 0.05 0.01 83 998.6
20200403105534 -90 0.0 0.0 0.00 0.05 0.01 83 998.5
20200403105032 -90 0.0 0.0 0.00 0.05 0.01 83 998.5
20200403104551 -90 0.0 0.0 0.00 0.05 0.01 83 998.5
20200403104029 -90 0.0 0.0 0.00 0.05 0.01 83 998.5
20200403103527 -90 0.0 0.0 0.00 0.05 0.01 83 998.5
20200403103115 -90 0.0 0.0 0.00 0.05 0.01 83 998.4
20200403102525 -90 0.0 0.0 0.00 0.05 0.01 83 998.4
20200403102023 -90 0.0 0.0 0.00 0.05 0.01 83 998.3
20200403101530 -90 0.0 0.0 0.00 0.05 0.01 83 998.4
20200403101036 -90 0.0 0.0 0.00 0.05 0.01 83 998.3
20200403100519 -90 0.0 0.0 0.00 0.05 0.01 83 998.3
20200403100036 -90 0.0 0.0 0.00 0.05 0.01 83 998.3
20200403095519 -90 0.0 0.0 0.00 0.05 0.01 83 998.2
20200403095015 -90 0.0 0.0 0.00 0.05 0.01 83 998.1
20200403094533 -90 0.0 0.0 0.00 0.05 0.01 83 998.2
20200403094012 -90 0.0 0.0 0.00 0.05 0.01 83 998.1
20200403093514 -90 0.0 0.0 0.00 0.05 0.01 83 998.0
20200403093014 -90 0.0 0.0 0.00 0.05 0.01 83 998.0
20200403092521 -90 0.0 0.0 0.00 0.05 0.01 83 998.0
20200403092006 -90 0.0 0.0 0.00 0.05 0.01 83 998.0
20200403091603 -90 0.0 0.0 0.00 0.05 0.01 83 997.9
20200403091002 -90 0.0 0.0 0.00 0.05 0.01 83 998.0
20200403090513 -90 344 1.0 9.0 0.00 0.05 0.01 83 997.9
20200403090201 -90 344 1.0 9.0 0.00 0.05 0.01 83 998.0
20200403085559 -90 344 1.0 9.0 0.00 0.05 0.01 83 998.0
20200403085058 43 29 3.0 9.0 0.00 0.05 0.01 84 997.9
20200403084715 43 322 2.0 7.0 0.00 0.05 0.01 84 998.0
20200403084107 43 6 2.0 6.0 0.00 0.05 0.01 84 998.0
20200403083556 42 325 2.0 6.0 0.01 0.05 0.01 84 998.0
20200403083330 42 346 2.0 7.0 0.01 0.05 0.01 84 997.9
20200403082619 42 330 3.0 7.0 0.01 0.05 0.01 84 998.0
20200403082058 42 341 1.0 6.0 0.01 0.05 0.01 84 997.9
20200403081647 42 19 4.0 6.0 0.01 0.05 0.01 85 997.8
20200403081107 42 338 2.0 5.0 0.01 0.05 0.01 85 997.9
20200403080602 42 351 2.0 6.0 0.01 0.05 0.01 85 997.9
20200403080117 42 24 2.0 8.0 0.01 0.05 0.01 85 998.0
20200403075554 42 333 1.0 8.0 0.01 0.05 0.01 85 997.9
20200403075051 42 31 1.0 5.0 0.01 0.05 0.01 85 998.0
20200403074557 42 334 1.0 4.0 0.01 0.05 0.01 85 997.9
20200403074051 42 10 1.0 8.0 0.01 0.05 0.01 85 997.9
20200403073551 42 360 3.0 8.0 0.00 0.04 0.00 84 997.9
20200403073132 42 328 2.0 8.0 0.00 0.04 0.00 84 998.0
20200403072549 42 332 2.0 8.0 0.00 0.04 0.00 84 998.0
20200403072050 42 335 2.0 7.0 0.00 0.04 0.00 84 997.9
20200403071743 42 322 2.0 6.0 0.00 0.04 0.00 84 998.0
20200403071050 42 315 1.0 5.0 0.00 0.04 0.00 83 998.0
20200403070546 42 311 2.0 7.0 0.00 0.04 0.00 83 998.1
20200403070139 42 7 3.0 8.0 0.00 0.04 0.00 83 998.1
20200403065545 42 60 3.0 7.0 0.00 0.04 0.00 83 998.1
20200403065045 42 342 3.0 6.0 0.00 0.04 0.00 83 998.3
20200403064545 42 293 2.0 6.0 0.00 0.04 0.00 83 998.3
20200403064043 42 29 1.0 8.0 0.00 0.04 0.00 83 998.3
20200403063546 42 37 1.0 6.0 0.00 0.04 0.00 83 998.3
20200403063113 42 21 4.0 7.0 0.00 0.04 0.00 83 998.3
20200403062542 42 319 2.0 7.0 0.00 0.04 0.00 83 998.4
20200403062044 42 335 2.0 9.0 0.00 0.04 0.00 83 998.3
20200403061556 42 55 4.0 9.0 0.00 0.04 0.00 84 998.4
20200403060537 42 353 2.0 8.0 0.00 0.04 0.00 85 998.5
20200403060127 41 351 2.0 6.0 0.00 0.04 0.00 85 998.4
20200403055537 42 339 2.0 7.0 0.00 0.04 0.00 85 998.5
20200403055037 42 349 0.0 10.0 0.00 0.04 0.00 84 998.5
20200403054650 42 30 4.0 10.0 0.00 0.04 0.00 84 998.5
20200403054056 42 4 3.0 8.0 0.00 0.04 0.00 83 998.7
20200403053536 42 267 3.0 8.0 0.00 0.04 0.00 83 998.7
20200403053115 42 13 3.0 8.0 0.00 0.04 0.00 83 998.7
20200403052534 42 299 2.0 10.0 0.00 0.04 0.00 83 998.8
20200403052046 42 323 1.0 10.0 0.00 0.04 0.00 83 998.8
20200403051554 42 344 4.0 8.0 0.00 0.04 0.00 83 998.8
20200403051031 42 13 1.0 8.0 0.00 0.04 0.00 84 998.9
20200403050530 42 28 1.0 10.0 0.00 0.04 0.00 84 999.0
20200403050101 42 1 1.0 7.0 0.00 0.04 0.00 84 999.0
20200403045528 42 307 3.0 9.0 0.00 0.04 0.00 84 999.0
20200403045034 42 336 2.0 9.0 0.00 0.04 0.00 84 999.0
20200403044641 41 49 2.0 9.0 0.00 0.04 0.00 84 999.1
20200403044013 41 356 3.0 9.0 0.00 0.04 0.00 84 999.2
20200403043512 41 328 4.0 9.0 0.00 0.04 0.00 85 999.2
20200403043107 41 29 5.0 9.0 0.00 0.04 0.00 85 999.2
20200403042517 41 319 3.0 8.0 0.00 0.04 0.00 85 999.3
20200403042034 41 323 2.0 7.0 0.00 0.04 0.00 85 999.3
20200403040129 41 354 3.0 7.0 0.03 0.04 0.00 86 999.4
20200403035525 41 8 3.0 7.0 0.03 0.04 0.04 86 999.4
20200403035106 40 53 4.0 7.0 0.03 0.04 0.04 87 999.4
20200403034621 40 36 2.0 7.0 0.03 0.04 0.04 87 999.5
20200403034027 40 328 2.0 7.0 0.03 0.04 0.04 87 999.6
20200403033519 40 36 3.0 8.0 0.03 0.04 0.04 87 999.6
20200403033048 40 344 5.0 10.0 0.03 0.04 0.04 86 999.6
20200403032002 41 27 4.0 11.0 0.03 0.04 0.04 86 999.7
20200403031059 41 328 4.0 8.0 0.01 0.02 0.02 85 999.8
20200403030633 41 348 4.0 15.0 0.00 0.01 0.01 84 999.8
20200403030120 41 342 5.0 15.0 0.00 0.01 0.01 84 999.9
20200403025554 41 345 5.0 10.0 0.00 0.01 0.01 84 999.9
20200403025053 41 357 4.0 11.0 0.01 0.01 0.01 84 1000.0
20200403024627 41 335 3.0 11.0 0.01 0.01 0.01 83 1000.0
20200403024056 41 358 2.0 11.0 0.01 0.01 0.01 83 1000.0
20200403023548 41 1 2.0 13.0 0.01 0.01 0.01 83 1000.1
20200403023151 41 36 3.0 7.0 0.01 0.01 0.01 83 1000.1
20200403022603 42 319 1.0 8.0 0.01 0.01 0.01 82 1000.2
20200403022044 42 345 2.0 7.0 0.01 0.01 0.01 82 1000.3
20200403021651 42 25 4.0 11.0 0.01 0.01 0.01 82 1000.3
20200403021044 42 20 4.0 11.0 0.01 0.01 0.01 82 1000.4
20200403020542 42 19 3.0 8.0 0.01 0.01 0.01 82 1000.4
20200403020100 42 27 4.0 12.0 0.01 0.01 0.01 82 1000.5
20200403015540 42 344 3.0 13.0 0.00 0.00 0.00 82 1000.5
20200403015038 42 315 4.0 12.0 0.00 0.00 0.00 81 1000.6
20200403014551 42 30 3.0 8.0 0.00 0.00 0.00 82 1000.6
20200403014031 42 355 2.0 11.0 0.00 0.00 0.00 81 1000.6
20200403013530 42 44 5.0 13.0 0.00 0.00 0.00 79 1000.6
20200403013029 42 19 6.0 13.0 0.00 0.00 0.00 79 1000.7
20200403012529 43 345 6.0 13.0 0.00 0.00 0.00 79 1000.8
20200403012047 43 15 6.0 13.0 0.00 0.00 0.00 78 1000.9
20200403011628 43 349 5.0 13.0 0.00 0.00 0.00 79 1000.8
20200403011022 43 28 6.0 13.0 0.00 0.00 0.00 78 1000.8
20200403010536 43 301 4.0 15.0 0.00 0.00 0.00 77 1000.8
20200403010019 44 44 6.0 15.0 0.00 0.00 0.00 76 1000.8
20200403005519 44 344 6.0 18.0 0.00 0.00 0.00 76 1000.9
20200403005033 44 349 7.0 18.0 0.00 0.00 0.00 76 1000.9
20200403004515 44 349 4.0 11.0 0.00 0.00 0.00 76 1000.8
20200403004027 44 6 4.0 10.0 0.00 0.00 0.00 76 1001.0
20200403003511 44 360 2.0 12.0 0.00 0.00 0.00 76 1000.9
20200403003033 45 48 5.0 12.0 0.00 0.00 0.00 75 1001.0
20200403002501 45 9 4.0 12.0 0.00 0.00 0.00 74 1000.9
20200403002057 45 352 6.0 12.0 0.00 0.00 0.00 73 1000.6
20200403001519 45 91 5.0 13.0 0.00 0.00 0.00 72 1000.7
20200403001022 46 23 5.0 18.0 0.00 0.00 0.00 70 1000.7
20200403000500 46 354 6.0 16.0 0.00 0.00 0.00 69 1000.5
20200403000039 46 38 8.0 16.0 0.00 0.00 0.00 68 1000.4
20200402235523 46 34 6.0 14.0 0.00 0.00 0.00 68 1000.5
20200402235001 46 11 4.0 12.0 0.00 0.00 0.00 68 1000.4
20200402233504 47 325 7.0 11.0 0.00 0.00 0.00 67 1000.2
20200402233008 47 26 2.0 11.0 0.00 0.00 0.00 66 1000.2
20200402232518 48 34 3.0 12.0 0.00 0.00 0.00 65 1000.2
20200402231521 48 32 6.0 15.0 0.00 0.00 0.00 65 1000.1
20200402231003 48 34 2.0 11.0 0.00 0.00 0.00 66 1000.0
20200402230557 48 342 4.0 11.0 0.00 0.00 0.00 65 1000.0
20200402230031 48 340 3.0 13.0 0.00 0.00 0.00 65 1000.0
20200402225516 48 22 6.0 10.0 0.00 0.00 0.00 63 1000.0
20200402225002 49 27 4.0 11.0 0.00 0.00 0.00 62 999.9
20200402224513 49 337 6.0 14.0 0.00 0.00 0.00 60 999.9
20200402224030 50 46 5.0 14.0 0.00 0.00 0.00 59 999.9
20200402223538 50 10 3.0 17.0 0.00 0.00 0.00 57 999.7
20200402222105 51 31 5.0 19.0 0.00 0.00 0.00 54 999.5
20200402221528 51 37 3.0 8.0 0.00 0.00 0.00 54 999.5
20200402221021 51 27 3.0 8.0 0.00 0.00 0.00 55 999.3
20200402220510 51 19 4.0 8.0 0.00 0.00 0.00 55 999.3
20200402220015 51 340 3.0 10.0 0.00 0.00 0.00 54 999.2
20200402215508 52 33 5.0 10.0 0.00 0.00 0.00 54 999.1
20200402215009 52 325 2.0 9.0 0.00 0.00 0.00 54 999.1
20200402214505 52 350 5.0 9.0 0.00 0.00 0.00 54 999.1
20200402214002 52 21 3.0 7.0 0.00 0.00 0.00 55 999.2
20200402213608 52 2 4.0 9.0 0.00 0.00 0.00 54 999.0
20200402213340 52 27 4.0 9.0 0.00 0.00 0.00 54 999.0
20200402212603 52 316 3.0 13.0 0.00 0.00 0.00 54 999.0
20200402212056 52 26 4.0 13.0 0.00 0.00 0.00 53 999.0
20200402211640 53 340 3.0 9.0 0.00 0.00 0.00 52 998.9
20200402211053 53 304 0.0 8.0 0.00 0.00 0.00 53 998.8
20200402210552 53 48 3.0 9.0 0.00 0.00 0.00 52 998.9
20200402210145 53 323 3.0 6.0 0.00 0.00 0.00 51 998.9
20200402205549 53 12 2.0 6.0 0.00 0.00 0.00 51 998.9
20200402205107 53 352 3.0 12.0 0.00 0.00 0.00 50 998.7
20200402204719 54 34 5.0 10.0 0.00 0.00 0.00 49 998.7
20200402204044 54 6 5.0 10.0 0.00 0.00 0.00 48 998.7
20200402203542 54 10 5.0 10.0 0.00 0.00 0.00 47 998.6
20200402203106 54 15 1.0 10.0 0.00 0.00 0.00 47 998.5
20200402202540 54 337 3.0 10.0 0.00 0.00 0.00 47 998.4
20200402202042 55 355 4.0 14.0 0.00 0.00 0.00 47 998.5
20200402201559 55 359 4.0 14.0 0.00 0.00 0.00 47 998.4
20200402201051 55 44 6.0 12.0 0.00 0.00 0.00 46 998.5
20200402200535 56 358 4.0 9.0 0.00 0.00 0.00 46 998.3
20200402200039 56 43 4.0 9.0 0.00 0.00 0.00 46 998.4
20200402195534 56 13 2.0 7.0 0.00 0.00 0.00 46 998.4
20200402195029 55 31 3.0 11.0 0.00 0.00 0.00 47 998.4
20200402194542 55 20 5.0 14.0 0.00 0.00 0.00 46 998.4
20200402194030 55 10 5.0 14.0 0.00 0.00 0.00 46 998.4
20200402193531 55 354 4.0 11.0 0.00 0.00 0.00 47 998.5
20200402193049 55 315 5.0 12.0 0.00 0.00 0.00 46 998.6
20200402192522 55 359 5.0 12.0 0.00 0.00 0.00 47 998.7
20200402192023 55 39 2.0 12.0 0.00 0.00 0.00 47 998.7
20200402191548 55 21 5.0 14.0 0.00 0.00 0.00 47 998.7
20200402191018 55 358 6.0 15.0 0.00 0.00 0.00 47 998.7
20200402190516 55 41 4.0 10.0 0.00 0.00 0.00 47 998.6
20200402190036 55 329 5.0 12.0 0.00 0.00 0.00 47 998.7
20200402185518 55 3 5.0 12.0 0.00 0.00 0.00 47 998.7
20200402185016 55 25 5.0 0.0 0.00 0.00 0.00 47 998.5
20200402184521 55 20 5.0 12.0 0.00 0.00 0.00 47 998.7
20200402184008 55 46 2.0 12.0 0.00 0.00 0.00 47 998.8
20200402183511 55 10 5.0 12.0 0.00 0.00 0.00 47 998.7
20200402183036 55 7 5.0 9.0 0.00 0.00 0.00 47 998.7
20200402182512 56 308 4.0 9.0 0.00 0.00 0.00 46 998.7
20200402182010 56 316 3.0 7.0 0.00 0.00 0.00 46 998.6
20200402181104 56 345 1.0 8.0 0.00 0.00 0.00 46 998.7
20200402180557 56 337 3.0 8.0 0.00 0.00 0.00 46 998.7
20200402180218 56 31 3.0 10.0 0.00 0.00 0.00 46 998.7
20200402175554 55 314 3.0 11.0 0.00 0.00 0.00 47 998.8
20200402175055 55 353 4.0 11.0 0.00 0.00 0.00 47 998.9
20200402174632 55 7 3.0 10.0 0.00 0.00 0.00 47 999.0
20200402174054 55 25 4.0 11.0 0.00 0.00 0.00 46 999.1
20200402173548 55 352 4.0 11.0 0.00 0.00 0.00 47 999.2
20200402173135 56 271 4.0 9.0 0.00 0.00 0.00 46 999.4
20200402172545 56 337 3.0 8.0 0.00 0.00 0.00 47 999.3
20200402172048 56 158 4.0 10.0 0.00 0.00 0.00 46 999.3
20200402171608 55 346 3.0 10.0 0.00 0.00 0.00 47 999.4
20200402171044 56 15 5.0 10.0 0.00 0.00 0.00 46 999.4
20200402170539 56 327 3.0 11.0 0.00 0.00 0.00 48 999.5
20200402170055 55 342 6.0 13.0 0.00 0.00 0.00 48 999.5
20200402165543 54 18 6.0 11.0 0.00 0.00 0.00 48 999.6
20200402165041 54 347 5.0 13.0 0.00 0.00 0.00 48 999.7
20200402164601 54 29 3.0 14.0 0.00 0.00 0.00 49 999.7
20200402164031 54 358 8.0 14.0 0.00 0.00 0.00 49 999.8
20200402163532 54 65 6.0 10.0 0.00 0.00 0.00 49 999.9
20200402163117 53 354 4.0 13.0 0.00 0.00 0.00 50 999.9
20200402162526 53 311 6.0 13.0 0.00 0.00 0.00 50 1000.0
20200402162025 53 29 5.0 9.0 0.00 0.00 0.00 51 1000.1
20200402161545 53 344 4.0 10.0 0.00 0.00 0.00 51 1000.0
20200402161021 53 341 4.0 10.0 0.00 0.00 0.00 52 1000.1
20200402160523 53 37 4.0 9.0 0.00 0.00 0.00 52 1000.1
20200402160118 52 354 2.0 9.0 0.00 0.00 0.00 52 1000.3
20200402155533 52 57 3.0 9.0 0.00 0.00 0.00 53 1000.4
20200402155016 52 302 3.0 10.0 0.00 0.00 0.00 52 1000.5
20200402154526 52 55 3.0 10.0 0.00 0.00 0.00 53 1000.5
20200402154012 52 24 4.0 11.0 0.00 0.00 0.00 53 1000.5
20200402153510 52 338 3.0 11.0 0.00 0.00 0.00 53 1000.6
20200402153027 51 340 3.0 11.0 0.00 0.00 0.00 55 1000.6
20200402152510 51 9 5.0 11.0 0.00 0.00 0.00 54 1000.7
20200402152006 51 328 4.0 11.0 0.00 0.00 0.00 55 1000.7
20200402151518 51 347 2.0 9.0 0.00 0.00 0.00 55 1000.7
20200402151002 50 25 3.0 15.0 0.00 0.00 0.00 55 1000.8
20200402150501 51 13 6.0 15.0 0.00 0.00 0.00 54 1001.0
20200402150258 51 300 3.0 6.0 0.00 0.00 0.00 55 1001.1
20200402145559 50 325 2.0 8.0 0.00 0.00 0.00 55 1001.2
20200402145106 49 353 4.0 9.0 0.00 0.00 0.00 56 1001.4
20200402144633 49 340 4.0 9.0 0.00 0.00 0.00 55 1001.5
20200402144054 49 337 4.0 8.0 0.00 0.00 0.00 57 1001.7
20200402143552 48 48 3.0 9.0 0.00 0.00 0.00 58 1001.6
20200402143119 47 3 3.0 6.0 0.00 0.00 0.00 58 1001.8
20200402142549 47 318 3.0 9.0 0.00 0.00 0.00 59 1001.9
20200402142048 46 341 3.0 11.0 0.00 0.00 0.00 59 1002.0
20200402141634 46 347 4.0 13.0 0.00 0.00 0.00 59 1002.0
20200402141045 46 323 3.0 10.0 0.00 0.00 0.00 59 1002.0
20200402140543 46 49 4.0 10.0 0.00 0.00 0.00 60 1002.0
20200402140058 46 301 3.0 8.0 0.00 0.00 0.00 61 1002.1
20200402135540 45 26 4.0 11.0 0.00 0.00 0.00 61 1002.1
20200402135039 45 311 3.0 11.0 0.00 0.00 0.00 62 1002.3
20200402134640 44 336 3.0 9.0 0.00 0.00 0.00 62 1002.3
20200402134039 44 8 3.0 9.0 0.00 0.00 0.00 63 1002.4
20200402133535 44 330 4.0 10.0 0.00 0.00 0.00 63 1002.5
20200402133117 44 360 3.0 11.0 0.00 0.00 0.00 63 1002.5
20200402132532 43 331 4.0 11.0 0.00 0.00 0.00 64 1002.5
20200402132031 43 6 2.0 11.0 0.00 0.00 0.00 64 1002.6
20200402131626 43 20 4.0 11.0 0.00 0.00 0.00 64 1002.6
20200402131040 43 23 3.0 10.0 0.00 0.00 0.00 64 1002.7
20200402130524 43 316 3.0 9.0 0.00 0.00 0.00 64 1002.7
20200402130045 43 323 4.0 9.0 0.00 0.00 0.00 65 1002.9
20200402125528 42 347 4.0 9.0 0.00 0.00 0.00 65 1002.8
20200402125038 42 309 3.0 11.0 0.00 0.00 0.00 65 1002.8
20200402124534 42 34 3.0 11.0 0.00 0.00 0.00 65 1002.9
20200402124021 42 341 4.0 11.0 0.00 0.00 0.00 65 1002.8
20200402123534 42 320 4.0 11.0 0.00 0.00 0.00 66 1002.9
20200402123040 42 37 3.0 11.0 0.00 0.00 0.00 66 1002.9
20200402122516 42 8 1.0 9.0 0.00 0.00 0.00 66 1002.9
20200402122011 42 337 3.0 8.0 0.00 0.00 0.00 67 1002.9
20200402121515 42 41 2.0 9.0 0.00 0.00 0.00 67 1003.0
20200402121010 41 8 3.0 10.0 0.00 0.00 0.00 67 1002.9
20200402120506 41 331 4.0 8.0 0.00 0.00 0.00 67 1003.0
20200402120020 41 36 3.0 9.0 0.00 0.00 0.00 67 1003.0
20200402115508 41 29 3.0 10.0 0.00 0.00 0.00 67 1003.0
20200402115009 41 59 4.0 10.0 0.00 0.00 0.00 68 1003.0
20200402114501 41 335 2.0 8.0 0.00 0.00 0.00 68 1003.0
20200402114103 41 347 2.0 8.0 0.00 0.00 0.00 68 1003.0
20200402113603 41 335 2.0 9.0 0.00 0.00 0.00 68 1003.0